Hourly Data Report for June 14, 2021

CARIBOU POINT (AUT)
NOVA SCOTIA
Current Station Operator: ECCC - MSC

45°46'00.000" N
62°41'00.000" W
2.40 m
8200774
71415
WBK

Download Data

Hourly Data (June 2021)
Hourly Data Report for June 14, 2021
TIME
LST
Temp Definition
°C
Dew Point Definition
°C
Rel Hum Definition
%
Precip. Amount Definition
mm

Wind Dir Definition
10's deg

Wind Spd Definition
km/h
Visibility Definition
km
Stn Press Definition
kPa
Hmdx Definition


Wind Chill Definition


Weather Definition


00:00 11.9 7.1 73 0.0 12 14   101.54     LegendNANA
01:00 9.4 6.5 82 0.0 19 10   101.59     LegendNANA
02:00 9.1 6.6 85 0.0 19 8   101.61     LegendNANA
03:00 9.4 6.7 83 0.0 16 12   101.63     LegendNANA
04:00 9.2 6.6 84 0.0 16 12   101.65     LegendNANA
05:00 8.4 5.6 83 0.0 19 12   101.70     LegendNANA
06:00 10.7 6.3 74 0.0 18 16   101.75     LegendNANA
07:00 11.7 3.6 58 0.0 16 16   101.76     LegendNANA
08:00 13.5 5.3 58 0.0 17 18   101.78     LegendNANA
09:00 15.4 6.4 55 0.0 16 22   101.77     LegendNANA
10:00 15.9 10.4 69 0.0 11 17   101.76     LegendNANA
11:00 17.2 10.0 62 0.0 12 20   101.74     LegendNANA
12:00 21.1 9.2 46 0.0 14 18   101.70     LegendNANA
13:00 24.2 10.7 43 0.0 19 15   101.66 26   LegendNANA
14:00 25.1 11.0 41 0.0 20 17   101.63 27   LegendNANA
15:00 24.8 9.3 37 0.0 20 21   101.62 26   LegendNANA
16:00 23.6 11.1 45 0.0 19 20   101.62 25   LegendNANA
17:00 21.8 11.0 50 0.0 17 34   101.62     LegendNANA
18:00 19.9 11.0 56 0.0 18 33   101.65     LegendNANA
19:00 17.2 11.0 67 0.0 18 33   101.73     LegendNANA
20:00 14.5 11.0 79 0.0 18 37   101.77     LegendNANA
21:00 13.3 11.1 87 0.0 18 28   101.84     LegendNANA
22:00 13.0 11.2 89 0.0 17 20   101.85     LegendNANA
23:00 12.9 11.1 89 0.0 17 28   101.83     LegendNANA

Notes on Data Quality.

Legend

  • E = Estimated
  • M = Missing
  • NA = Not Available*
  • [empty] = Indicates an unobserved value
Date modified: